EXPRESS-AM44

Last updated on Sun Apr 12 2026 00:02:51 GMT+0000 (Coordinated Universal Time)

1 33595U 09007A 26100.80552153 -.00000085 00000+0 00000+0 0 9991 2 33595 3.2897 79.1969 0004361 303.5919 95.2502 1.00272683 51616
UTC large
Height (km)
Speed (km/s)
/
Latitude / Longitude
Inclination (degrees)
Orbital Period (minutes)
Azimuth
Elevation
Range (km)
Doppler Factor

Next 0 passes for location: London (51.5072 / 0.1276)

Sorry there are no passes over London.
EXPRESS-AM44